Minangkabau Airport

Jump to: basic info | weather | frequencies | runways | comments

Related pages: nearby airports | nearby navaids | notams | map

Basic information (top)

Codes: PDG WIPT
Location: lon -0.786917, lat 100.280998, elev 18 ft / 5 m msl
Status: medium_airport
Scheduled airline service: yes
Links: Wikipedia Mobile

Weather (top)

Current conditions (rec'd 2014/10/01 23:30Z):

WIPT 012330Z 36004KT 7000 BKN020 25/24 Q1010

Airport forecast (rec'd 2014/09/30 18:00Z):

TAF WIPT 301700Z 3018/0118 06003KT 8000 SCT022 
      BECMG 3021/3023 02003KT 8000 SCT020 
      BECMG 0102/0104 25006KT 9999 FEW020

Frequencies (top)

Verify before use: may be inaccurate or out of date.

APP: 124 MHz (PADANG APP)
ATIS: 127.25 MHz (ATIS)
TWR: 118.3 MHz (MINANG TWR)

Runways (top)

15/33: 9,020 x 148 ft (2,749 x 45 m) — paved — lighted

Latest comments (top)

No comments yet for Minangkabau Airport

More... (top)

See also NOTAMs and nearby airports and navaids, or visit the Minangkabau Airport page at the main OurAirports website..